Skip Page Navigation
NASA JPL Caltech
NASA Logo - Jet Propulsion Laboratory + View the NASA Portal
+ Near-Earth Object (NEO) Program
Search JPL
JPL Home Earth Solar System Stars & Galaxies Technology
JPL Solar System Dynamics
BODIES ORBITS EPHEMERIDES TOOLS PHYSICAL DATA DISCOVERY FAQ SITE MAP
JPL Small-Body Database Browser
Search: [ help ]  
79333 Yusaku (1996 TN6)
Classification: Main-belt Asteroid          SPK-ID: 2079333
Ephemeris | Orbit Diagram | Orbital Elements | Physical Parameters | Discovery Circumstances ]

[ show orbit diagram ]
Orbital Elements at Epoch 2456400.5 (2013-Apr-18.0) TDB
Reference: JPL 1 (heliocentric ecliptic J2000)
 Element Value Uncertainty (1-sigma)   Units 
e .1750079472653417 1.1213e-07  
a 2.755889708908022 3.7138e-08 AU
q 2.273587108062349 3.097e-07 AU
i 13.16358820415169 1.3382e-05 deg
node 12.05943654542515 3.4862e-05 deg
peri 320.9007359883107 4.5237e-05 deg
M 231.3934530794823 3.248e-05 deg
tp 2456997.468964331098
(2014-Dec-05.96896433)
0.00015654 JED
period 1671.056663172948
4.58
3.3778e-05
9.248e-08
d
yr
n .2154325511119676 4.3547e-09 deg/d
Q 3.238192309753695 4.3637e-08 AU
  Orbit Determination Parameters
   # obs. used (total)      360  
   data-arc span      6041 days (16.54 yr)  
   first obs. used      1996-10-05  
   last obs. used      2013-04-20  
   planetary ephem.      DE405  
   SB-pert. ephem.      SB405-CPV-2  
   condition code      0  
   fit RMS      .54629  
   data source      ORB  
   producer      Otto Matic  
   solution date      2013-Apr-29 17:32:56  

Additional Information
 Earth MOID = 1.28059 AU 
 T_jup = 3.283 
[ show covariance matrix ]

Ephemeris | Orbit Diagram | Orbital Elements | Physical Parameters | Discovery Circumstances ]

Physical Parameter Table
Parameter Symbol Value Units Sigma Reference Notes
absolute magnitude H 14.672 mag .51197 1 autocmod 2.5c

79333 Yusaku           Discovered 1996 Oct. 5 by A. Nakamura at Kuma Kogen.
Actor Yusaku Matsuda (1950-1989) was born in Yamaguchi prefecture. Having debuted in 1973 on Taiyo ni Hoero, he appeared in a number of television dramas and films, including the Hollywood movie Black Rain.
NOTE: some special characters may not display properly (any characters within {} are an attempt to place the proper accent above a character)
Reference: 20070601/MPCPages.arcLast Updated: 2007-06-06

Alternate Designations
 1996 TN6 = 2001 QV74 
Ephemeris | Orbit Diagram | Orbital Elements | Physical Parameters | Discovery Circumstances ]
ABOUT SSD CREDITS/AWARDS PRIVACY/COPYRIGHT GLOSSARY LINKS
FirstGov 2013-May-21 11:16 UT
(server date/time)  
NASA Home Page
Site Manager:   Donald K. Yeomans
Webmaster  Alan B. Chamberlin